Content
SEND FEEDBACK

Daily
Averages
Monthly
Summary
United States of America

CHATTAROY, WASHINGTON


Home > North America > United States > Washington
Elevation: 180 meters     Latitude: 47 55N     Longitude: 117 07W

WEATHER
 
SELECT A DAY
Number of Records: 168,948;   Date Range: 1/7/99 - 8/30/14
 
SHARE

PRINT THIS DATA

[ ← Previous Day ]
WEATHER ALMANAC - 23 JANUARY, 2013
[ Next Day → ]
[ °F ]   °C
Weather ElementAverageHighLow
Temperature-3.4 °C0 °C (9:50 pm)-10 °C (7:53 am)
Dewpoint-4.6 °C-1 °C (9:50 pm)-11.1 °C (7:53 am)
Humidity91.9 %100 % (6:06 pm)85 % (1:53 pm)
Barometer1017.3 hPa1023.7 hPa (1:53 am)1012.9 hPa (8:28 pm)
Wind Speed6 km/h35.2 km/h (10:35 pm)
Weather ElementAverage
Visibility9.7 km
Wind DirectionESE (110.3 °)

Weather ElementTotal
Precipitation---
Heating Degree Days23.3 (Base 18.3)
Averaged from 38 records on 23 January, 2013
WEATHER CONDITIONS BREAKOUT
WIND DIRECTION BREAKOUT
WEATHER BY HOUR - 23 JANUARY, 2013
[ °F ]   °C
Local TimeTemperatureDewpointHumidityBarometerVisibilityWind DirectionWind SpeedGust SpeedPrecipitationEventsConditions
1:53 AM-8.3 °C-9.4 °C92 %1023.7 hPa14.5 kmWest (280°)7.4 km/hClear
2:53 AM-8.9 °C-10 °C92 %1023.4 hPa16.1 kmCalmClear
3:53 AM-7.8 °C-8.9 °C92 %1022.7 hPa16.1 kmWSW (250°)7.4 km/hClear
4:53 AM-7.2 °C-8.9 °C88 %1022 hPa16.1 kmCalmClear
5:53 AM-7.8 °C-8.9 °C92 %1021.3 hPa16.1 kmCalmClear
6:53 AM-9.4 °C-10.6 °C91 %1021.7 hPa16.1 kmCalmClear
7:53 AM-10 °C-11.1 °C92 %1021.3 hPa16.1 kmNNW (340°)9.3 km/hClear
8:53 AM-7.8 °C-8.9 °C92 %1020.7 hPa16.1 kmCalmClear
9:53 AM-6.7 °C-7.8 °C92 %1020.7 hPa16.1 kmCalmClear
10:53 AM-5.6 °C-6.7 °C92 %1020 hPa16.1 kmCalmClear
11:53 AM-3.3 °C-5 °C88 %1019 hPa16.1 kmCalmClear
12:53 PM-2.8 °C-4.4 °C89 %1018.3 hPa16.1 kmWSW (240°)7.4 km/hMostly Cloudy
1:53 PM-1.7 °C-3.9 °C85 %1016.6 hPa16.1 kmCalmOvercast
2:53 PM-1.7 °C-3.9 °C85 %1017.3 hPa16.1 kmCalmOvercast
3:45 PM-2 °C-4 °C86 %1014.6 hPa4 kmCalm0 mmSnowLight Snow
3:50 PM-2 °C-4 °C86 %1014.6 hPa1.3 kmCalm0 mmSnowLight Snow
3:53 PM-1.7 °C-3.3 °C89 %1017.6 hPa0.8 kmCalm0 mmFog-SnowSnow
4:06 PM-2 °C-3 °C93 %1014.6 hPa0.8 kmENE (70°)5.6 km/h0 mmFog-SnowSnow
4:32 PM-2 °C-3 °C93 %1014.6 hPa0.8 kmESE (120°)7.4 km/h0 mmFog-SnowSnow
4:53 PM-2.2 °C-2.8 °C96 %1017.3 hPa1.3 kmCalm0 mmSnowLight Snow
5:12 PM-2 °C-3 °C93 %1013.9 hPa1.6 kmENE (60°)5.6 km/h0 mmSnowLight Snow
5:31 PM-2 °C-3 °C93 %1013.9 hPa3.2 kmCalm0 mmSnowLight Snow
5:46 PM-2 °C-3 °C93 %1013.9 hPa2.9 kmCalm0 mmSnowLight Snow
5:53 PM-1.7 °C-2.2 °C96 %1016.9 hPa2.9 kmCalm0 mmSnowLight Snow
6:06 PM-2 °C-2 °C100 %1013.9 hPa1.9 kmCalm0 mmSnowLight Snow
6:32 PM-2 °C-2 °C100 %1013.2 hPa4.8 kmNorth (360°)5.6 km/h0 mmSnowLight Snow
7:53 PM-1.7 °C-1.7 °C100 %1015.6 hPa6.4 kmCalm0 mmRainLight Freezing Rain
8:28 PM-1 °C-2 °C93 %1012.9 hPa8 kmWest (260°)9.3 km/h0 mmOvercast
8:40 PM-1 °C-2 °C93 %1012.9 hPa4.8 kmSW (230°)7.4 km/h0 mmSnowLight Snow
8:47 PM-1 °C-2 °C93 %1013.2 hPa4 kmWest (260°)11.1 km/h0 mmSnowLight Snow
8:53 PM-1.1 °C-1.7 °C96 %1016.3 hPa4 kmWest (280°)7.4 km/h0 mmSnowLight Snow
9:09 PM-1 °C-2 °C93 %1013.2 hPa4.8 kmWest (260°)5.6 km/h0 mmSnowLight Snow
9:50 PM0 °C-1 °C93 %1014.6 hPa16.1 kmSSW (200°)11.1 km/h0 mmOvercast
9:53 PM0 °C-1.1 °C92 %1017.3 hPa16.1 kmSSW (200°)14.8 km/h0 mmOvercast
10:23 PM-1 °C-3 °C86 %1015.2 hPa14.5 kmSouth (190°)27.8 km/hOvercast
10:35 PM-2 °C-3 °C93 %1015.6 hPa12.9 kmSSW (200°)35.2 km/hOvercast
10:53 PM-2.8 °C-3.9 °C92 %1018.6 hPa12.9 kmSSW (200°)24.1 km/hOvercast
11:53 PM-3.9 °C-5.6 °C88 %1020.3 hPa12.9 kmSouth (190°)18.5 km/hOvercast
Hourly data recorded from KDEW, located 0 kilometers away from Chattaroy, Washington







STORIES FROM OUR PARTNERS